Tracking 27401 objects as of 4-Jun-2023
HD Live streaming from Space Station
objects crossing your sky now

MOLNIYA 3-27

Track MOLNIYA 3-27 now!
MOLNIYA 3-27 is classified as:


NORAD ID: 16393
Int'l Code: 1985-117A
Perigee: 1,034.7 km
Apogee: 37,352.2 km
Inclination: 64.1 °
Period: 678.0 minutes
Semi major axis: 25564 km
RCS: 15.138 m2 (large)
Launch date: December 24, 1985
Source: Commonwealth of Independent States (former USSR) (CIS)
Launch site: PLESETSK MISSILE AND SPACE COMPLEX (PKMTR)
Your satellite tracking list
Your tracking list is empty




NASA's NSSDC Master Catalog

Two Line Element Set (TLE):
1 16393U 85117A   23153.98422693 -.00000203  00000-0  00000-0 0  9997
2 16393  64.1282  33.8551 7103119 246.3670  27.6380  2.12396864281628
Source of the keplerian elements: AFSPC